| time (UTC) | temp C | wind direction | speed KPH | gust KPH | rain 1hr cm | rain 24hr cm | rain mn cm | humidity % | barometer mb |
| 20260507001505 | 31 | 27 | 3.2 | 11.3 | 0.00 | 0.00 | 0.00 | 18 | 995.7 |
| 20260507000003 | 32 | 319 | 8.0 | 25.7 | 0.00 | 0.00 | 0.00 | 19 | 995.7 |
| 20260506234608 | 31 | 89 | 0.0 | 14.5 | 0.00 | 0.00 | 0.00 | 19 | 995.7 |
| 20260506233106 | 32 | 307 | 4.8 | 14.5 | 0.00 | 0.00 | 0.00 | 20 | 996.0 |
| 20260506231556 | 31 | 263 | 8.0 | 14.5 | 0.00 | 0.00 | 0.00 | 20 | 996.3 |
| 20260506230054 | 31 | 336 | 0.0 | 14.5 | 0.00 | 0.00 | 0.00 | 20 | 996.4 |
| 20260506224605 | 31 | 330 | 1.6 | 22.5 | 0.00 | 0.00 | 0.00 | 21 | 996.6 |
| 20260506223054 | 31 | 285 | 6.4 | 14.5 | 0.00 | 0.00 | 0.00 | 21 | 996.9 |
| 20260506221545 | 31 | 136 | 3.2 | 11.3 | 0.00 | 0.00 | 0.00 | 21 | 997.2 |
| 20260506220054 | 30 | 117 | 6.4 | 11.3 | 0.00 | 0.00 | 0.00 | 21 | 997.5 |
| 20260506214542 | 30 | 238 | 3.2 | 12.9 | 0.00 | 0.00 | 0.00 | 21 | 997.8 |
| 20260506213040 | 30 | 246 | 8.0 | 12.9 | 0.00 | 0.00 | 0.00 | 22 | 998.1 |
| 20260506211547 | 29 | 241 | 4.8 | 16.1 | 0.00 | 0.00 | 0.00 | 23 | 998.4 |
| 20260506210038 | 28 | 169 | 6.4 | 14.5 | 0.00 | 0.00 | 0.00 | 23 | 998.7 |
| 20260506204539 | 29 | 265 | 9.7 | 17.7 | 0.00 | 0.00 | 0.00 | 24 | 998.8 |
| 20260506203036 | 28 | 282 | 4.8 | 16.1 | 0.00 | 0.00 | 0.00 | 23 | 999.0 |
| 20260506201536 | 29 | 232 | 4.8 | 14.5 | 0.00 | 0.00 | 0.00 | 23 | 999.2 |
| 20260506200035 | 28 | 257 | 4.8 | 11.3 | 0.00 | 0.00 | 0.00 | 25 | 999.3 |
| 20260506194537 | 28 | 240 | 6.4 | 19.3 | 0.00 | 0.00 | 0.00 | 25 | 999.6 |
| 20260506193031 | 27 | 340 | 0.0 | 16.1 | 0.00 | 0.00 | 0.00 | 26 | 999.8 |
| 20260506191529 | 27 | 132 | 1.6 | 12.9 | 0.00 | 0.00 | 0.00 | 26 | 999.9 |
| 20260506190027 | 27 | 200 | 4.8 | 14.5 | 0.00 | 0.00 | 0.00 | 27 | 1000.1 |
| 20260506184529 | 27 | 69 | 3.2 | 12.9 | 0.00 | 0.00 | 0.00 | 27 | 1000.4 |
| 20260506183023 | 26 | 199 | 3.2 | 9.7 | 0.00 | 0.00 | 0.00 | 27 | 1000.6 |
| 20260506181521 | 26 | 129 | 6.4 | 14.5 | 0.00 | 0.00 | 0.00 | 28 | 1000.7 |
| 20260506180018 | 25 | 108 | 3.2 | 12.9 | 0.00 | 0.00 | 0.00 | 30 | 1000.8 |
| 20260506174517 | 25 | 250 | 3.2 | 11.3 | 0.00 | 0.00 | 0.00 | 30 | 1000.9 |
| 20260506171602 | 24 | 182 | 0.0 | 9.7 | 0.00 | 0.00 | 0.00 | 31 | 1000.9 |
| 20260506170104 | 24 | 198 | 4.8 | 11.3 | 0.00 | 0.00 | 0.00 | 31 | 1000.9 |
| 20260506164552 | 23 | 138 | 3.2 | 9.7 | 0.00 | 0.00 | 0.00 | 32 | 1001.1 |
| 20260506163049 | 23 | 162 | 3.2 | 11.3 | 0.00 | 0.00 | 0.00 | 33 | 1001.1 |
| 20260506161549 | 22 | 117 | 3.2 | 12.9 | 0.00 | 0.00 | 0.00 | 35 | 1001.1 |
| 20260506160057 | 22 | 214 | 3.2 | 9.7 | 0.00 | 0.00 | 0.00 | 36 | 1001.1 |
| 20260506154540 | 21 | 159 | 3.2 | 9.7 | 0.00 | 0.00 | 0.00 | 36 | 1001.1 |
| 20260506153037 | 21 | 153 | 1.6 | 8.0 | 0.00 | 0.00 | 0.00 | 37 | 1001.1 |
| 20260506151534 | 20 | 146 | 1.6 | 8.0 | 0.00 | 0.00 | 0.00 | 39 | 1001.0 |
| 20260506150032 | 19 | 151 | 3.2 | 9.7 | 0.00 | 0.00 | 0.00 | 39 | 1000.8 |
| 20260506144531 | 18 | 193 | 1.6 | 8.0 | 0.00 | 0.00 | 0.00 | 39 | 1000.8 |
| 20260506143034 | 18 | 157 | 1.6 | 8.0 | 0.00 | 0.00 | 0.00 | 40 | 1000.6 |
| 20260506141529 | 17 | 194 | 3.2 | 8.0 | 0.00 | 0.00 | 0.00 | 42 | 1000.5 |
| 20260506140030 | 17 | 123 | 1.6 | 8.0 | 0.00 | 0.00 | 0.00 | 44 | 1000.5 |
| 20260506134526 | 16 | 163 | 0.0 | 3.2 | 0.00 | 0.00 | 0.00 | 45 | 1000.4 |
| 20260506133023 | 16 | 138 | 1.6 | 4.8 | 0.00 | 0.00 | 0.00 | 46 | 1000.1 |
| 20260506131538 | 15 | 126 | 0.0 | 3.2 | 0.00 | 0.00 | 0.00 | 48 | 999.8 |
| 20260506130035 | 15 | 103 | 0.0 | 3.2 | 0.00 | 0.00 | 0.00 | 50 | 999.6 |
| 20260506124517 | 14 | 202 | 0.0 | 0.0 | 0.00 | 0.00 | 0.00 | 52 | 999.5 |
| 20260506123015 | 13 | 202 | 0.0 | 1.6 | 0.00 | 0.00 | 0.00 | 55 | 999.3 |
| 20260506121513 | 14 | 202 | 0.0 | 0.0 | 0.00 | 0.00 | 0.00 | 52 | 999.2 |
| 20260506120017 | 14 | 202 | 0.0 | 0.0 | 0.00 | 0.00 | 0.00 | 51 | 999.2 |
| 20260506114509 | 14 | 202 | 0.0 | 0.0 | 0.00 | 0.00 | 0.00 | 51 | 999.1 |
| 20260506113006 | 15 | 202 | 0.0 | 0.0 | 0.00 | 0.00 | 0.00 | 50 | 998.9 |
| 20260506111504 | 15 | 202 | 0.0 | 1.6 | 0.00 | 0.00 | 0.00 | 49 | 998.7 |
| 20260506110003 | 15 | 215 | 0.0 | 6.4 | 0.00 | 0.00 | 0.00 | 50 | 998.6 |
| 20260506104600 | 15 | 218 | 0.0 | 1.6 | 0.00 | 0.00 | 0.00 | 48 | 998.5 |
| 20260506103057 | 16 | 218 | 0.0 | 3.2 | 0.00 | 0.00 | 0.00 | 46 | 998.4 |
| 20260506101555 | 16 | 209 | 0.0 | 3.2 | 0.00 | 0.00 | 0.00 | 45 | 998.3 |
| 20260506100052 | 16 | 217 | 0.0 | 8.0 | 0.00 | 0.00 | 0.00 | 45 | 998.1 |
| 20260506094614 | 16 | 168 | 1.6 | 9.7 | 0.00 | 0.00 | 0.00 | 44 | 998.1 |
| 20260506093046 | 17 | 238 | 0.0 | 8.0 | 0.00 | 0.00 | 0.00 | 41 | 998.0 |
| 20260506091543 | 18 | 159 | 3.2 | 6.4 | 0.00 | 0.00 | 0.00 | 40 | 997.9 |
| 20260506090040 | 19 | 227 | 4.8 | 11.3 | 0.00 | 0.00 | 0.00 | 38 | 997.8 |
| 20260506084639 | 19 | 128 | 6.4 | 12.9 | 0.00 | 0.00 | 0.00 | 38 | 997.8 |
| 20260506083038 | 19 | 107 | 3.2 | 9.7 | 0.00 | 0.00 | 0.00 | 39 | 997.8 |
| 20260506081537 | 19 | 141 | 4.8 | 8.0 | 0.00 | 0.00 | 0.00 | 38 | 997.9 |
| 20260506073036 | 18 | 142 | 3.2 | 8.0 | 0.00 | 0.00 | 0.00 | 40 | 997.6 |
| 20260506071535 | 18 | 144 | 1.6 | 8.0 | 0.00 | 0.00 | 0.00 | 41 | 997.6 |
| 20260506061522 | 19 | 198 | 3.2 | 8.0 | 0.00 | 0.00 | 0.00 | 39 | 996.9 |
| 20260506044513 | 22 | 141 | 4.8 | 9.7 | 0.00 | 0.00 | 0.00 | 29 | 995.7 |
| 20260506043013 | 22 | 121 | 4.8 | 11.3 | 0.00 | 0.00 | 0.00 | 29 | 995.6 |
| 20260506041515 | 22 | 128 | 6.4 | 11.3 | 0.00 | 0.00 | 0.00 | 29 | 995.4 |
| 20260506040011 | 22 | 129 | 6.4 | 12.9 | 0.00 | 0.00 | 0.00 | 29 | 995.3 |
| 20260506034511 | 22 | 148 | 3.2 | 11.3 | 0.00 | 0.00 | 0.00 | 28 | 995.1 |
| 20260506033010 | 22 | 146 | 3.2 | 11.3 | 0.00 | 0.00 | 0.00 | 28 | 994.9 |
| 20260506031550 | 22 | 153 | 1.6 | 8.0 | 0.00 | 0.00 | 0.00 | 28 | 994.7 |
| 20260506030019 | 23 | 146 | 4.8 | 11.3 | 0.00 | 0.00 | 0.00 | 27 | 994.4 |
| 20260506024521 | 23 | 163 | 3.2 | 11.3 | 0.00 | 0.00 | 0.00 | 26 | 994.2 |
| 20260506023007 | 24 | 139 | 4.8 | 9.7 | 0.00 | 0.00 | 0.00 | 25 | 993.9 |
| 20260506021507 | 25 | 209 | 3.2 | 11.3 | 0.00 | 0.00 | 0.00 | 24 | 993.7 |
| 20260506020006 | 25 | 150 | 6.4 | 16.1 | 0.00 | 0.00 | 0.00 | 23 | 993.6 |
| 20260506014504 | 26 | 194 | 6.4 | 12.9 | 0.00 | 0.00 | 0.00 | 23 | 993.5 |
| 20260506013007 | 26 | 168 | 6.4 | 12.9 | 0.00 | 0.00 | 0.00 | 23 | 993.4 |
| 20260506011504 | 27 | 206 | 9.7 | 17.7 | 0.00 | 0.00 | 0.00 | 21 | 993.3 |
| 20260506010002 | 27 | 223 | 8.0 | 14.5 | 0.00 | 0.00 | 0.00 | 22 | 993.2 |
| 20260506004601 | 27 | 165 | 6.4 | 12.9 | 0.00 | 0.00 | 0.00 | 21 | 993.2 |
| 20260506003100 | 27 | 192 | 6.4 | 16.1 | 0.00 | 0.00 | 0.00 | 21 | 993.2 |